Regional Weather Roundup
Issued by NWS Wakefield, VA

Home | Current Version | Previous Version | Text Only | Print | Product List | Glossary On
Versions: 1 2 3 4 5 6 7 8 9 10 11 12 13 14 15 16 17 18 19 20 21 22 23 24 25 26 27 28 29 30 31 32 33 34 35 36 37 38 39 40 41 42 43 44 45 46 47 48 49 50
734
ASUS41 KAKQ 251314
RWRAKQ

REGIONAL WEATHER ROUNDUP
NATIONAL WEATHER SERVICE WAKEFIELD VA
800 AM EST SAT FEB 25 2017

Note: "fair" indicates few or no clouds below 12,000 feet with no
significant weather and/or obstructions to visibility. * = Denotes
station may not report precipitation (e.g., rain,snow,etc.),
thunder or fog.

VAZ042-051-052>054-056-251400-
NORTHERN VIRGINIA

CITY           SKY/WX    TMP DP  RH WIND       PRES   REMARKS
WASH NATIONAL  PTSUNNY   62  58  86 S13       29.68F
DULLES         PTSUNNY   61  56  83 S10       29.66F
FORT BELVOIR   MOSUNNY   59  57  92 SE6       29.68F
QUANTICO       MOSUNNY   55  54  96 SW10      29.70S
FREDERICKSBRG* MOSUNNY   60  60 100 S7        29.69S
STAFFORD*      MOSUNNY   60  58  95 S12       29.73R
WARRENTON      MOSUNNY   61  55  82 S10       29.66F
CULPEPER*      SUNNY     61  58  90 S6        29.68S
MANASSAS*      SUNNY     61  57  87 S10       29.67F
LEESBURG*      CLOUDY    61  61 100 MISG      29.67R
WINCHESTER     CLOUDY    59  54  82 S10       29.61F
FRONT ROYAL*   NOT AVBL
LURAY*         PTSUNNY   63  55  77 SW3       29.63S
$$

VAZ048-049-060>072-079>083-251400-
CENTRAL AND SOUTH CENTRAL VIRGINIA

CITY           SKY/WX    TMP DP  RH WIND       PRES   REMARKS
RICHMOND       PTSUNNY   59  58  96 S10       29.73F
CHESTERFIELD*  FAIR      59  45  58 S8        29.75S
PETERSBURG*    PTSUNNY   57  56  96 S5        29.75S
HANOVER        MOSUNNY   59  55  87 SE7       29.73F
TAPPAHANNOCK*  MOSUNNY   61  61 100 S6        29.74S
QUINTON*       FAIR      58  58 100 S7        29.73F
CHARLOTTSVILLE PTSUNNY   62  58  86 S13       29.66F
GORDONSVILLE*  MOSUNNY   60  58  91 S9        29.67F
ORANGE*        MOSUNNY   59  55  88 CALM      29.68F
LOUISA*        SUNNY     63  61  94 S7        29.68F
BUMPASS*       NOT AVBL
FARMVILLE*     SUNNY     61  59  94 S7        29.68F
CREWE*         NOT AVBL
FORT PICKETT*  FAIR      59  56  88 S8G17     29.73S
CHASE CITY*    FAIR      59  57  94 CALM      29.73S
CLARKSVILLE*   NOT AVBL
SOUTH HILL*    MOSUNNY   56  56 100 S7        29.80S
LAWRENCEVILLE* FAIR      58  57  97 S6        29.75S
EMPORIA*       MOSUNNY   55  55 100 SE5       29.77F
$$

VAZ088>098-251400-
SOUTHEAST VIRGINIA

CITY           SKY/WX    TMP DP  RH WIND       PRES   REMARKS
NORFOLK        SUNNY     59  58  96 SW6       29.77S
VIRGINIA BEACH MOSUNNY   55  54  96 CALM      29.77S
NORFOLK NAVAL  MOSUNNY   60  58  92 VRB3      29.78S
WEST POINT*    SUNNY     59  58  97 SE7       29.76F
SALUDA*        NOT AVBL
NEWPORT NEWS   SUNNY     61  59  93 S8        29.76F
LANGLEY AFB    SUNNY     58  58 100 SW5       29.76F
FORT EUSTIS    SUNNY     59  57  94 S6        29.74F
WILLIAMSBURG*  CLOUDY    57  57 100 CALM      29.77F
HR EXEC AP*    FAIR      54  52  94 CALM      29.76F
FRANKLIN*      MOSUNNY   57  56  98 S6        29.78S
US460-WAKEFLD  SUNNY     57  57 100 S5        29.76F
$$

VAZ020-022-025-037-045-251400-
WEST CENTRAL AND SOUTHWEST VIRGINIA

CITY           SKY/WX    TMP DP  RH WIND       PRES   REMARKS
STAUNTON*      MOSUNNY   56  51  86 SW7       29.65F
WAYNESBORO*    NOT AVBL
HOT SPRINGS VA LGT RAIN  54  50  87 S12G22    29.70S
LYNCHBURG      MOSUNNY   60  55  83 S9        29.69R
DANVILLE       SUNNY     60  56  86 SW3       29.71F
SOUTH BOSTON*  NOT AVBL
MARTINSVILLE   PTSUNNY   59  53  82 CALM      29.72S
ROANOKE        CLOUDY    61  54  77 SE14      29.67F
BLACKSBURG     CLOUDY    60  54  78 SW8       29.71R
DUBLIN*        CLOUDY    59  51  76 SW15G24   29.72R
MARION*        LGT RAIN  55  53  92 W10       29.74R
HILLSVILLE*    CLOUDY    55  53  95 CALM      29.70S
RICHLANDS*     RAIN      53  51  95 SW8G18    29.69R
WISE*          CLOUDY    45  37  76 CALM      29.74S
ABINGDON*      DRIZZLE   56  55  96 W7        29.69S
$$

MDZ021>025-VAZ099-100-251400-
SOUTHERN MARYLAND AND THE DELMARVA PENINSULA

CITY           SKY/WX    TMP DP  RH WIND       PRES   REMARKS
PATUXENT RIVER MOSUNNY   61  58  90 S8        29.72F
BAY BRIDGE APT MOSUNNY   59  57  94 S13G20    29.71S FOG
LEONARDTOWN    MOSUNNY   59  55  88 S5        29.74F
DOVER          MOSUNNY   57  57  99 S8        29.72F
GEORGETOWN     SUNNY     58  56  93 S7        29.76S
EASTON         SUNNY     63  57  82 S12       29.76F
CAMBRIDGE      SUNNY     59  57  94 S8        29.73F
SALISBURY      SUNNY     57  57 100 S7        29.75F
OCEAN CITY     FOG       52  51  97 SW5       29.78S VSB 1
WALLOPS ISLAND PTSUNNY   53  53 100 S3        29.77F FOG
ACCOMACK*      SUNNY     56  55  95 S7        29.77S
$$

NCZ012>017-030>032-251400-
NORTH CENTRAL AND EASTERN NORTH CAROLINA

CITY           SKY/WX    TMP DP  RH WIND       PRES   REMARKS
ROANOKE RAPIDS FAIR      57  57 100 S5        29.77F
RALEIGH        MOSUNNY   62  58  86 SW8       29.76S
ELIZABETH CITY SUNNY     56  56 100 CALM      29.79S
AHOSKIE*         N/A     53  53  99 CALM      29.79S FOG
EDENTON*       FOG       56  56 100 CALM      29.80S VSB 1/4
CURRITUCK*     SUNNY     53  53 100 CALM      29.79F
KILL DEVIL HLS NOT AVBL
MANTEO         SUNNY     56  56 100 CALM      29.80R
CAPE HATTERAS  SUNNY     64  60  87 CALM      29.80R FOG
TARBORO*       NOT AVBL
GOLDSBORO      SUNNY     57  57 100 SE3       29.77F FOG
WASHINGTON       N/A     52  51  99 CALM      29.81R
GREENVILLE     FOG       54  54 100 CALM      29.82S VSB 1/4
NEW BERN       CLOUDY    54  54 100 CALM      29.82R FOG
WILMINGTON     FOG       55  55 100 CALM      29.82R VSB 1
$$

VAZ048-251400-
ELSEWHERE

CITY           SKY/WX    TMP DP  RH WIND       PRES   REMARKS
HARRISBURG PA  CLOUDY    61  57  87 SE10      29.63F
BALTIMORE      PTSUNNY   57  57 100 SE6       29.68S
ANNAPOLIS      CLOUDY    55  55 100 S10       29.69F FOG
ANDREWS AFB    MOSUNNY   61  57  87 S16       29.67F
PHILADELPHIA   PTSUNNY   59  55  87 SE6       29.73F
HENDERSON NC   SUNNY     56  55  96 S6        29.74F
GREENSBORO     PTSUNNY   60  56  86 SW7       29.71F
ROCKY MOUNT    MOSUNNY   57  57 100 S5        29.78S FOG
$$

VAZ100-251400-
MARINE

STATION/POSITION TIME  TEMP    WIND        PRES    WAVE   SWELL
                       AIR SEA DIR/SP/G            HT/PER HT/PER
                 (UTC) (F)     (DEG/KT/KT) (MB)    (FT/S) (FT/S)
CAPE MAY NJ      1242   54 46  130/ 10/ 12 1007.4F
LEWES DE         1242   57 45  160/  6/  8 1007.6F
OCEAN-CITY-INLET 1248          240/  5/  5   N/A
WACHAPREAGUE VA  1242   53 54  170/  2/  3 1008.3F
THOMAS POINT MD  1300   51 45  170/ 18/ 19   N/A
GOOSES REEF MD   1250   48     170/ 14/ 16 1007.0F
COVE POINT MD    1242   47     190/ 14/ 15 1007.2F
SOLOMONS ISLAND  1248          140/  5/  6   N/A
BISHOPS HEAD MD  1242   51 52  160/ 11/ 12 1007.3F
PINEY POINT MD   1248          140/  5/  6   N/A
POTOMAC MD       1250   51     170/  8/ 10 1006.0F
CAMBRIDGE MD     1242   58 45  180/  5/  8 1006.2F
LEWISETTA VA     1242   60 51  210/ 11/ 13 1006.5F
RAPPAHANNOCK LGT 1248          150/ 12/ 12 1008.3F
YORK RVR RNG VA  1242   50     180/ 10/ 10 1007.2F
YORKTOWN VA      1236   59 50  190/  6/  9 1007.4F
JAMESTOWN VA     1250   58     130/  4/  6   N/A
DOMINION TERM VA 1236   56     150/  4/  4 1008.2S
KIPTOPEKE VA     1248      48  160/  6/  7   N/A
CHES BAY BRIDGE  1236   58 47  180/  7/  8 1008.2R
CAPE HENRY VA    1236   60     180/  5/  8   N/A
WILLOUBY STN VA  1236   56        CALM     1009.1S
S CRANEY ISL VA  1236   54     190/  3/  4 1008.1R
CAPE HENRY BUOY  1242      49                N/A     4/11   2/11
OFFSHORE WE BUOY 1251      51                N/A     5/10   2/12
64NM E OF VA BCH 1250   56 54   20/  4/  4 1008.3R   7/11   7/11
DUCK PIER NC     1236   58 49   CALM  /  2 1008.3R
44100 DUCK FRF   1235      53                N/A     6/11   3/11
44056 DUCK FRF   1230      50                N/A     5/11   3/11
OREGON INLET NC  1248           40/  2/  3   N/A
HATTERAS NC      1236   62 63  330/  2/  3 1008.5R
DIAMOND SHLS NC  1250   71 76  340/  6/  8 1008.8R   8/11   8/11
CAPE LOOKOUT NC  1200   62     320/  2/  2 1008.5R
$$




USA.gov is the U.S. government's official web portal to all federal, state and local government web resources and services.